Year,Month,Day,Hour,Minute,Value (Times are PST for temperature in C)
2013,10,17,00,00,6.10
2013,10,17,00,01,6.10
2013,10,17,00,02,6.10
2013,10,17,00,03,6.00
2013,10,17,00,04,6.00
2013,10,17,00,05,6.00
2013,10,17,00,06,6.00
2013,10,17,00,07,5.90
2013,10,17,00,08,5.90
2013,10,17,00,09,5.80
2013,10,17,00,10,5.80
2013,10,17,00,11,5.70
2013,10,17,00,12,5.70
2013,10,17,00,13,5.70
2013,10,17,00,14,5.70
2013,10,17,00,15,5.60
2013,10,17,00,16,5.60
2013,10,17,00,17,5.60
2013,10,17,00,18,5.60
2013,10,17,00,19,5.60
2013,10,17,00,20,5.60
2013,10,17,00,21,5.60
2013,10,17,00,22,5.70
2013,10,17,00,23,5.70
2013,10,17,00,24,5.70
2013,10,17,00,25,5.70
2013,10,17,00,26,5.70
2013,10,17,00,27,5.70
2013,10,17,00,28,5.80
2013,10,17,00,29,5.80
2013,10,17,00,30,5.80
2013,10,17,00,31,5.80
2013,10,17,00,32,5.80
2013,10,17,00,33,5.80
2013,10,17,00,34,5.80
2013,10,17,00,35,5.70
2013,10,17,00,36,5.70
2013,10,17,00,37,5.70
2013,10,17,00,38,5.70
2013,10,17,00,39,5.70
2013,10,17,00,40,5.70
2013,10,17,00,41,5.70
2013,10,17,00,42,5.70
2013,10,17,00,43,5.70
2013,10,17,00,44,5.70
2013,10,17,00,45,5.70
2013,10,17,00,46,5.70
2013,10,17,00,47,5.70
2013,10,17,00,48,5.70
2013,10,17,00,49,5.70
2013,10,17,00,50,5.70
2013,10,17,00,51,5.70
2013,10,17,00,52,5.70
2013,10,17,00,53,5.70
2013,10,17,00,54,5.70
2013,10,17,00,55,5.70
2013,10,17,00,56,5.70
2013,10,17,00,57,5.70
2013,10,17,00,58,5.70
2013,10,17,00,59,5.70
2013,10,17,01,00,5.70
2013,10,17,01,01,5.70
2013,10,17,01,02,5.70
2013,10,17,01,03,5.70
2013,10,17,01,04,5.70
2013,10,17,01,05,5.70
2013,10,17,01,06,5.80
2013,10,17,01,07,5.80
2013,10,17,01,08,5.80
2013,10,17,01,09,5.80
2013,10,17,01,10,5.80
2013,10,17,01,11,5.80
2013,10,17,01,12,5.70
2013,10,17,01,13,5.70
2013,10,17,01,14,5.70
2013,10,17,01,15,5.70
2013,10,17,01,16,5.70
2013,10,17,01,17,5.60
2013,10,17,01,18,5.60
2013,10,17,01,19,5.60
2013,10,17,01,20,5.60
2013,10,17,01,21,5.50
2013,10,17,01,22,5.50
2013,10,17,01,23,5.50
2013,10,17,01,24,5.50
2013,10,17,01,25,5.50
2013,10,17,01,26,5.50
2013,10,17,01,27,5.50
2013,10,17,01,28,5.50
2013,10,17,01,29,5.50
2013,10,17,01,30,5.50
2013,10,17,01,31,5.50
2013,10,17,01,32,5.60
2013,10,17,01,33,5.60
2013,10,17,01,34,5.60
2013,10,17,01,35,5.60
2013,10,17,01,36,5.70
2013,10,17,01,37,5.70
2013,10,17,01,38,5.70
2013,10,17,01,39,5.70
2013,10,17,01,40,5.70
2013,10,17,01,41,5.70
2013,10,17,01,42,5.70
2013,10,17,01,43,5.70
2013,10,17,01,44,5.70
2013,10,17,01,45,5.70
2013,10,17,01,46,5.70
2013,10,17,01,47,5.80
2013,10,17,01,48,5.80
2013,10,17,01,49,5.80
2013,10,17,01,50,5.80
2013,10,17,01,51,5.80
2013,10,17,01,52,5.80
2013,10,17,01,53,5.70
2013,10,17,01,54,5.70
2013,10,17,01,55,5.70
2013,10,17,01,56,5.70
2013,10,17,01,57,5.70
2013,10,17,01,58,5.70
2013,10,17,01,59,5.70
2013,10,17,02,00,5.70
2013,10,17,02,01,5.60
2013,10,17,02,02,5.60
2013,10,17,02,03,5.60
2013,10,17,02,04,5.60
2013,10,17,02,05,5.60
2013,10,17,02,06,5.60
2013,10,17,02,07,5.60
2013,10,17,02,08,5.60
2013,10,17,02,09,5.60
2013,10,17,02,10,5.60
2013,10,17,02,11,5.60
2013,10,17,02,12,5.60
2013,10,17,02,13,5.60
2013,10,17,02,14,5.60
2013,10,17,02,15,5.60
2013,10,17,02,16,5.60
2013,10,17,02,17,5.60
2013,10,17,02,18,5.60
2013,10,17,02,19,5.60
2013,10,17,02,20,5.70
2013,10,17,02,21,5.60
2013,10,17,02,22,5.60
2013,10,17,02,23,5.50
2013,10,17,02,24,5.50
2013,10,17,02,25,5.50
2013,10,17,02,26,5.40
2013,10,17,02,27,5.30
2013,10,17,02,28,5.30
2013,10,17,02,29,5.30
2013,10,17,02,30,5.20
2013,10,17,02,31,5.10
2013,10,17,02,32,5.10
2013,10,17,02,33,5.10
2013,10,17,02,34,5.10
2013,10,17,02,35,5.10
2013,10,17,02,36,5.00
2013,10,17,02,37,4.90
2013,10,17,02,38,4.90
2013,10,17,02,39,4.90
2013,10,17,02,40,4.90
2013,10,17,02,41,4.90
2013,10,17,02,42,4.90
2013,10,17,02,43,4.90
2013,10,17,02,44,4.90
2013,10,17,02,45,4.90
2013,10,17,02,46,4.90
2013,10,17,02,47,4.90
2013,10,17,02,48,4.90
2013,10,17,02,49,4.90
2013,10,17,02,50,4.90
2013,10,17,02,51,4.90
2013,10,17,02,52,4.90
2013,10,17,02,53,4.90
2013,10,17,02,54,4.90
2013,10,17,02,55,4.90
2013,10,17,02,56,4.90
2013,10,17,02,57,4.80
2013,10,17,02,58,4.80
2013,10,17,02,59,4.80
2013,10,17,03,00,4.70
2013,10,17,03,01,4.70
2013,10,17,03,02,4.70
2013,10,17,03,03,4.60
2013,10,17,03,04,4.60
2013,10,17,03,05,4.60
2013,10,17,03,06,4.60
2013,10,17,03,07,4.60
2013,10,17,03,08,4.60
2013,10,17,03,09,4.60
2013,10,17,03,10,4.60
2013,10,17,03,11,4.60
2013,10,17,03,12,4.60
2013,10,17,03,13,4.60
2013,10,17,03,14,4.60
2013,10,17,03,15,4.60
2013,10,17,03,16,4.60
2013,10,17,03,17,4.70
2013,10,17,03,18,4.70
2013,10,17,03,19,4.70
2013,10,17,03,20,4.70
2013,10,17,03,21,4.70
2013,10,17,03,22,4.70
2013,10,17,03,23,4.70
2013,10,17,03,24,4.60
2013,10,17,03,25,4.60
2013,10,17,03,26,4.60
2013,10,17,03,27,4.60
2013,10,17,03,28,4.60
2013,10,17,03,29,4.60
2013,10,17,03,30,4.60
2013,10,17,03,31,4.60
2013,10,17,03,32,4.60
2013,10,17,03,33,4.60
2013,10,17,03,34,4.60
2013,10,17,03,35,4.60
2013,10,17,03,36,4.60
2013,10,17,03,37,4.60
2013,10,17,03,38,4.60
2013,10,17,03,39,4.60
2013,10,17,03,40,4.60
2013,10,17,03,41,4.60
2013,10,17,03,42,4.60
2013,10,17,03,43,4.60
2013,10,17,03,44,4.60
2013,10,17,03,45,4.60
2013,10,17,03,46,4.60
2013,10,17,03,47,4.60
2013,10,17,03,48,4.60
2013,10,17,03,49,4.60
2013,10,17,03,50,4.60
2013,10,17,03,51,4.60
2013,10,17,03,52,4.60
2013,10,17,03,53,4.60
2013,10,17,03,54,4.60
2013,10,17,03,55,4.60
2013,10,17,03,56,4.60
2013,10,17,03,57,4.60
2013,10,17,03,58,4.60
2013,10,17,03,59,4.60
2013,10,17,04,00,4.60
2013,10,17,04,01,4.50
2013,10,17,04,02,4.50
2013,10,17,04,03,4.50
2013,10,17,04,04,4.50
2013,10,17,04,05,4.60
2013,10,17,04,06,4.60
2013,10,17,04,07,4.60
2013,10,17,04,08,4.60
2013,10,17,04,09,4.60
2013,10,17,04,10,4.60
2013,10,17,04,11,4.60
2013,10,17,04,12,4.60
2013,10,17,04,13,4.70
2013,10,17,04,14,4.70
2013,10,17,04,15,4.70
2013,10,17,04,16,4.70
2013,10,17,04,17,4.60
2013,10,17,04,18,4.60
2013,10,17,04,19,4.60
2013,10,17,04,20,4.60
2013,10,17,04,21,4.60
2013,10,17,04,22,4.60
2013,10,17,04,23,4.60
2013,10,17,04,24,4.60
2013,10,17,04,25,4.60
2013,10,17,04,26,4.60
2013,10,17,04,27,4.60
2013,10,17,04,28,4.60
2013,10,17,04,29,4.60
2013,10,17,04,30,4.60
2013,10,17,04,31,4.60
2013,10,17,04,32,4.60
2013,10,17,04,33,4.60
2013,10,17,04,34,4.60
2013,10,17,04,35,4.60
2013,10,17,04,36,4.60
2013,10,17,04,37,4.60
2013,10,17,04,38,4.60
2013,10,17,04,39,4.60
2013,10,17,04,40,4.60
2013,10,17,04,41,4.60
2013,10,17,04,42,4.70
2013,10,17,04,43,4.70
2013,10,17,04,44,4.70
2013,10,17,04,45,4.70
2013,10,17,04,46,4.70
2013,10,17,04,47,4.70
2013,10,17,04,48,4.70
2013,10,17,04,49,4.70
2013,10,17,04,50,4.70
2013,10,17,04,51,4.70
2013,10,17,04,52,4.60
2013,10,17,04,53,4.60
2013,10,17,04,54,4.60
2013,10,17,04,55,4.60
2013,10,17,04,56,4.60
2013,10,17,04,57,4.60
2013,10,17,04,58,4.60
2013,10,17,04,59,4.60
2013,10,17,05,00,4.60
2013,10,17,05,01,4.60
2013,10,17,05,02,4.60
2013,10,17,05,03,4.50
2013,10,17,05,04,4.50
2013,10,17,05,05,4.50
2013,10,17,05,06,4.40
2013,10,17,05,07,4.40
2013,10,17,05,08,4.40
2013,10,17,05,09,4.40
2013,10,17,05,10,4.40
2013,10,17,05,11,4.40
2013,10,17,05,12,4.40
2013,10,17,05,13,4.40
2013,10,17,05,14,4.40
2013,10,17,05,15,4.40
2013,10,17,05,16,4.40
2013,10,17,05,17,4.40
2013,10,17,05,18,4.50
2013,10,17,05,19,4.50
2013,10,17,05,20,4.50
2013,10,17,05,21,4.50
2013,10,17,05,22,4.50
2013,10,17,05,23,4.60
2013,10,17,05,24,4.60
2013,10,17,05,25,4.60
2013,10,17,05,26,4.60
2013,10,17,05,27,4.50
2013,10,17,05,28,4.50
2013,10,17,05,29,4.50
2013,10,17,05,30,4.50
2013,10,17,05,31,4.50
2013,10,17,05,32,4.50
2013,10,17,05,33,4.40
2013,10,17,05,34,4.40
2013,10,17,05,35,4.40
2013,10,17,05,36,4.40
2013,10,17,05,37,4.40
2013,10,17,05,38,4.40
2013,10,17,05,39,4.40
2013,10,17,05,40,4.40
2013,10,17,05,41,4.30
2013,10,17,05,42,4.30
2013,10,17,05,43,4.30
2013,10,17,05,44,4.30
2013,10,17,05,45,4.30
2013,10,17,05,46,4.20
2013,10,17,05,47,4.20
2013,10,17,05,48,4.20
2013,10,17,05,49,4.20
2013,10,17,05,50,4.20
2013,10,17,05,51,4.20
2013,10,17,05,52,4.20
2013,10,17,05,53,4.20
2013,10,17,05,54,4.10
2013,10,17,05,55,4.10
2013,10,17,05,56,4.10
2013,10,17,05,57,4.10
2013,10,17,05,58,4.20
2013,10,17,05,59,4.20
2013,10,17,06,00,4.20
2013,10,17,06,01,4.20
2013,10,17,06,02,4.20
2013,10,17,06,03,4.20
2013,10,17,06,04,4.20
2013,10,17,06,05,4.20
2013,10,17,06,06,4.20
2013,10,17,06,07,4.30
2013,10,17,06,08,4.30
2013,10,17,06,09,4.30
2013,10,17,06,10,4.30
2013,10,17,06,11,4.30
2013,10,17,06,12,4.30
2013,10,17,06,13,4.30
2013,10,17,06,14,4.30
2013,10,17,06,15,4.30
2013,10,17,06,16,4.30
2013,10,17,06,17,4.30
2013,10,17,06,18,4.30
2013,10,17,06,19,4.30
2013,10,17,06,20,4.30
2013,10,17,06,21,4.30
2013,10,17,06,22,4.30
2013,10,17,06,23,4.30
2013,10,17,06,24,4.30
2013,10,17,06,25,4.20
2013,10,17,06,26,4.20
2013,10,17,06,27,4.20
2013,10,17,06,28,4.20
2013,10,17,06,29,4.20
2013,10,17,06,30,4.20
2013,10,17,06,31,4.20
2013,10,17,06,32,4.20
2013,10,17,06,33,4.20
2013,10,17,06,34,4.20
2013,10,17,06,35,4.10
2013,10,17,06,36,4.10
2013,10,17,06,37,4.10
2013,10,17,06,38,4.10
2013,10,17,06,39,4.00
2013,10,17,06,40,4.00
2013,10,17,06,41,4.00
2013,10,17,06,42,4.00
2013,10,17,06,43,4.00
2013,10,17,06,44,4.00
2013,10,17,06,45,4.00
2013,10,17,06,46,4.00
2013,10,17,06,47,4.00
2013,10,17,06,48,4.00
2013,10,17,06,49,4.00
2013,10,17,06,50,4.00
2013,10,17,06,51,4.00
2013,10,17,06,52,4.00
2013,10,17,06,53,4.00
2013,10,17,06,54,4.10
2013,10,17,06,55,4.10
2013,10,17,06,56,4.10
2013,10,17,06,57,4.10
2013,10,17,06,58,4.10
2013,10,17,06,59,4.20
2013,10,17,07,00,4.20
2013,10,17,07,01,4.20
2013,10,17,07,02,4.20
2013,10,17,07,03,4.20
2013,10,17,07,04,4.20
2013,10,17,07,05,4.30
2013,10,17,07,06,4.30
2013,10,17,07,07,4.30
2013,10,17,07,08,4.30
2013,10,17,07,09,4.40
2013,10,17,07,10,4.40
2013,10,17,07,11,4.40
2013,10,17,07,12,4.50
2013,10,17,07,13,4.50
2013,10,17,07,14,4.50
2013,10,17,07,15,4.60
2013,10,17,07,16,4.60
2013,10,17,07,17,4.60
2013,10,17,07,18,4.60
2013,10,17,07,19,4.60
2013,10,17,07,20,4.60
2013,10,17,07,21,4.70
2013,10,17,07,22,4.70
2013,10,17,07,23,4.70
2013,10,17,07,24,4.70
2013,10,17,07,25,4.70
2013,10,17,07,26,4.80
2013,10,17,07,27,4.80
2013,10,17,07,28,4.80
2013,10,17,07,29,4.80
2013,10,17,07,30,4.80
2013,10,17,07,31,4.80
2013,10,17,07,32,4.80
2013,10,17,07,33,4.80
2013,10,17,07,34,4.80
2013,10,17,07,35,4.80
2013,10,17,07,36,4.80
2013,10,17,07,37,4.80
2013,10,17,07,38,4.70
2013,10,17,07,39,4.70
2013,10,17,07,40,4.70
2013,10,17,07,41,4.60
2013,10,17,07,42,4.60
2013,10,17,07,43,4.50
2013,10,17,07,44,4.50
2013,10,17,07,45,4.40
2013,10,17,07,46,4.30
2013,10,17,07,47,4.30
2013,10,17,07,48,4.20
2013,10,17,07,49,4.20
2013,10,17,07,50,4.20
2013,10,17,07,51,4.20
2013,10,17,07,52,4.10
2013,10,17,07,53,4.10
2013,10,17,07,54,4.10
2013,10,17,07,55,4.10
2013,10,17,07,56,4.10
2013,10,17,07,57,4.10
2013,10,17,07,58,4.00
2013,10,17,07,59,4.00
2013,10,17,08,00,4.00
2013,10,17,08,01,4.00
2013,10,17,08,02,4.00
2013,10,17,08,03,4.00
2013,10,17,08,04,4.00
2013,10,17,08,05,4.10
2013,10,17,08,06,4.10
2013,10,17,08,07,4.10
2013,10,17,08,08,4.20
2013,10,17,08,09,4.20
2013,10,17,08,10,4.20
2013,10,17,08,11,4.20
2013,10,17,08,12,4.20
2013,10,17,08,13,4.20
2013,10,17,08,14,4.30
2013,10,17,08,15,4.30
2013,10,17,08,16,4.30
2013,10,17,08,17,4.30
2013,10,17,08,18,4.40
2013,10,17,08,19,4.40
2013,10,17,08,20,4.40
2013,10,17,08,21,4.40
2013,10,17,08,22,4.40
2013,10,17,08,23,4.40
2013,10,17,08,24,4.40
2013,10,17,08,25,4.40
2013,10,17,08,26,4.40
2013,10,17,08,27,4.50
2013,10,17,08,28,4.50
2013,10,17,08,29,4.60
2013,10,17,08,30,4.60
2013,10,17,08,31,4.60
2013,10,17,08,32,4.70
2013,10,17,08,33,4.70
2013,10,17,08,34,4.80
2013,10,17,08,35,4.90
2013,10,17,08,36,4.90
2013,10,17,08,37,5.00
2013,10,17,08,38,5.10
2013,10,17,08,39,5.10
2013,10,17,08,40,5.10
2013,10,17,08,41,5.20
2013,10,17,08,42,5.20
2013,10,17,08,43,5.30
2013,10,17,08,44,5.30
2013,10,17,08,45,5.40
2013,10,17,08,46,5.50
2013,10,17,08,47,5.60
2013,10,17,08,48,5.70
2013,10,17,08,49,5.70
2013,10,17,08,50,5.80
2013,10,17,08,51,5.90
2013,10,17,08,52,5.90
2013,10,17,08,53,6.00
2013,10,17,08,54,6.00
2013,10,17,08,55,6.10
2013,10,17,08,56,6.10
2013,10,17,08,57,6.20
2013,10,17,08,58,6.20
2013,10,17,08,59,6.20
2013,10,17,09,00,6.20
2013,10,17,09,01,6.30
2013,10,17,09,02,6.30
2013,10,17,09,03,6.40
2013,10,17,09,04,6.40
2013,10,17,09,05,6.40
2013,10,17,09,06,6.60
2013,10,17,09,07,6.60
2013,10,17,09,08,6.60
2013,10,17,09,09,6.60
2013,10,17,09,10,6.70
2013,10,17,09,11,6.70
2013,10,17,09,12,6.80
2013,10,17,09,13,6.80
2013,10,17,09,14,6.80
2013,10,17,09,15,6.90
2013,10,17,09,16,6.90
2013,10,17,09,17,7.00
2013,10,17,09,18,7.00
2013,10,17,09,19,7.10
2013,10,17,09,20,7.10
2013,10,17,09,21,7.20
2013,10,17,09,22,7.20
2013,10,17,09,23,7.30
2013,10,17,09,24,7.30
2013,10,17,09,25,7.40
2013,10,17,09,26,7.40
2013,10,17,09,27,7.50
2013,10,17,09,28,7.60
2013,10,17,09,29,7.60
2013,10,17,09,30,7.70
2013,10,17,09,31,7.80
2013,10,17,09,32,7.80
2013,10,17,09,33,7.80
2013,10,17,09,34,7.90
2013,10,17,09,35,7.90
2013,10,17,09,36,7.90
2013,10,17,09,37,7.90
2013,10,17,09,38,7.90
2013,10,17,09,39,7.90
2013,10,17,09,40,7.90
2013,10,17,09,41,7.90
2013,10,17,09,42,7.90
2013,10,17,09,43,7.90
2013,10,17,09,44,7.90
2013,10,17,09,45,7.90
2013,10,17,09,46,8.00
2013,10,17,09,47,8.00
2013,10,17,09,48,8.10
2013,10,17,09,49,8.20
2013,10,17,09,50,8.20
2013,10,17,09,51,8.30
2013,10,17,09,52,8.40
2013,10,17,09,53,8.40
2013,10,17,09,54,8.50
2013,10,17,09,55,8.50
2013,10,17,09,56,8.60
2013,10,17,09,57,8.60
2013,10,17,09,58,8.60
2013,10,17,09,59,8.60
2013,10,17,10,00,8.60
2013,10,17,10,01,8.60
2013,10,17,10,02,8.60
2013,10,17,10,03,8.60
2013,10,17,10,04,8.70
2013,10,17,10,05,8.70
2013,10,17,10,06,8.70
2013,10,17,10,07,8.80
2013,10,17,10,08,8.80
2013,10,17,10,09,8.90
2013,10,17,10,10,8.90
2013,10,17,10,11,9.00
2013,10,17,10,12,9.00
2013,10,17,10,13,9.10
2013,10,17,10,14,9.10
2013,10,17,10,15,9.20
2013,10,17,10,16,9.20
2013,10,17,10,17,9.20
2013,10,17,10,18,9.20
2013,10,17,10,19,9.30
2013,10,17,10,20,9.30
2013,10,17,10,21,9.40
2013,10,17,10,22,9.40
2013,10,17,10,23,9.50
2013,10,17,10,24,9.50
2013,10,17,10,25,9.60
2013,10,17,10,26,9.70
2013,10,17,10,27,9.80
2013,10,17,10,28,9.90
2013,10,17,10,29,10.10
2013,10,17,10,30,10.20
2013,10,17,10,31,10.30
2013,10,17,10,32,10.30
2013,10,17,10,33,10.40
2013,10,17,10,34,10.40
2013,10,17,10,35,10.50
2013,10,17,10,36,10.60
2013,10,17,10,37,10.60
2013,10,17,10,38,10.60
2013,10,17,10,39,10.60
2013,10,17,10,40,10.60
2013,10,17,10,41,10.60
2013,10,17,10,42,10.60
2013,10,17,10,43,10.70
2013,10,17,10,44,10.70
2013,10,17,10,45,10.70
2013,10,17,10,46,10.70
2013,10,17,10,47,10.70
2013,10,17,10,48,10.80
2013,10,17,10,49,10.80
2013,10,17,10,50,10.80
2013,10,17,10,51,10.90
2013,10,17,10,52,10.90
2013,10,17,10,53,10.90
2013,10,17,10,54,10.90
2013,10,17,10,55,10.90
2013,10,17,10,56,10.90
2013,10,17,10,57,10.90
2013,10,17,10,58,10.90
2013,10,17,10,59,10.90
2013,10,17,11,00,11.00
2013,10,17,11,01,11.10
2013,10,17,11,02,11.10
2013,10,17,11,03,11.10
2013,10,17,11,04,11.10
2013,10,17,11,05,11.10
2013,10,17,11,06,11.20
2013,10,17,11,07,11.20
2013,10,17,11,08,11.30
2013,10,17,11,09,11.40
2013,10,17,11,10,11.40
2013,10,17,11,11,11.40
2013,10,17,11,12,11.50
2013,10,17,11,13,11.60
2013,10,17,11,14,11.60
2013,10,17,11,15,11.60
2013,10,17,11,16,11.60
2013,10,17,11,17,11.60
2013,10,17,11,18,11.70
2013,10,17,11,19,11.80
2013,10,17,11,20,11.80
2013,10,17,11,21,11.90
2013,10,17,11,22,11.90
2013,10,17,11,23,12.00
2013,10,17,11,24,12.00
2013,10,17,11,25,12.00
2013,10,17,11,26,12.10
2013,10,17,11,27,12.10
2013,10,17,11,28,12.20
2013,10,17,11,29,12.20
2013,10,17,11,30,12.20
2013,10,17,11,31,12.30
2013,10,17,11,32,12.30
2013,10,17,11,33,12.30
2013,10,17,11,34,12.40
2013,10,17,11,35,12.40
2013,10,17,11,36,12.50
2013,10,17,11,37,12.50
2013,10,17,11,38,12.60
2013,10,17,11,39,12.60
2013,10,17,11,40,12.70
2013,10,17,11,41,12.70
2013,10,17,11,42,12.70
2013,10,17,11,43,12.80
2013,10,17,11,44,12.90
2013,10,17,11,45,12.90
2013,10,17,11,46,12.90
2013,10,17,11,47,12.90
2013,10,17,11,48,12.90
2013,10,17,11,49,12.90
2013,10,17,11,50,13.00
2013,10,17,11,51,13.10
2013,10,17,11,52,13.10
2013,10,17,11,53,13.10
2013,10,17,11,54,13.00
2013,10,17,11,55,13.00
2013,10,17,11,56,13.00
2013,10,17,11,57,13.10
2013,10,17,11,58,13.10
2013,10,17,11,59,13.10
2013,10,17,12,00,13.00
2013,10,17,12,01,13.00
2013,10,17,12,02,13.00
2013,10,17,12,03,13.00
2013,10,17,12,04,13.10
2013,10,17,12,05,13.10
2013,10,17,12,06,13.10
2013,10,17,12,07,13.10
2013,10,17,12,08,13.10
2013,10,17,12,09,13.10
2013,10,17,12,10,13.10
2013,10,17,12,11,13.10
2013,10,17,12,12,13.10
2013,10,17,12,13,13.20
2013,10,17,12,14,13.30
2013,10,17,12,15,13.30
2013,10,17,12,16,13.30
2013,10,17,12,17,13.30
2013,10,17,12,18,13.30
2013,10,17,12,19,13.30
2013,10,17,12,20,13.30
2013,10,17,12,21,13.30
2013,10,17,12,22,13.40
2013,10,17,12,23,13.40
2013,10,17,12,24,13.50
2013,10,17,12,25,13.60
2013,10,17,12,26,13.60
2013,10,17,12,27,13.60
2013,10,17,12,28,13.60
2013,10,17,12,29,13.70
2013,10,17,12,30,13.70
2013,10,17,12,31,13.70
2013,10,17,12,32,13.60
2013,10,17,12,33,13.70
2013,10,17,12,34,13.70
2013,10,17,12,35,13.70
2013,10,17,12,36,13.70
2013,10,17,12,37,13.70
2013,10,17,12,38,13.80
2013,10,17,12,39,13.90
2013,10,17,12,40,14.00
2013,10,17,12,41,14.00
2013,10,17,12,42,14.00
2013,10,17,12,43,14.10
2013,10,17,12,44,14.10
2013,10,17,12,45,14.20
2013,10,17,12,46,14.20
2013,10,17,12,47,14.20
2013,10,17,12,48,14.30
2013,10,17,12,49,14.30
2013,10,17,12,50,14.40
2013,10,17,12,51,14.40
2013,10,17,12,52,14.40
2013,10,17,12,53,14.40
2013,10,17,12,54,14.50
2013,10,17,12,55,14.50
2013,10,17,12,56,14.50
2013,10,17,12,57,14.60
2013,10,17,12,58,14.60
2013,10,17,12,59,14.60
2013,10,17,13,00,14.50
2013,10,17,13,01,14.40
2013,10,17,13,02,14.40
2013,10,17,13,03,14.40
2013,10,17,13,04,14.40
2013,10,17,13,05,14.30
2013,10,17,13,06,14.40
2013,10,17,13,07,14.40
2013,10,17,13,08,14.50
2013,10,17,13,09,14.50
2013,10,17,13,10,14.60
2013,10,17,13,11,14.60
2013,10,17,13,12,14.60
2013,10,17,13,13,14.60
2013,10,17,13,14,14.50
2013,10,17,13,15,14.50
2013,10,17,13,16,14.50
2013,10,17,13,17,14.60
2013,10,17,13,18,14.60
2013,10,17,13,19,14.60
2013,10,17,13,20,14.60
2013,10,17,13,21,14.60
2013,10,17,13,22,14.60
2013,10,17,13,23,14.60
2013,10,17,13,24,14.70
2013,10,17,13,25,14.70
2013,10,17,13,26,14.70
2013,10,17,13,27,14.70
2013,10,17,13,28,14.70
2013,10,17,13,29,14.70
2013,10,17,13,30,14.80
2013,10,17,13,31,14.80
2013,10,17,13,32,14.80
2013,10,17,13,33,14.90
2013,10,17,13,34,14.90
2013,10,17,13,35,14.90
2013,10,17,13,36,15.00
2013,10,17,13,37,15.10
2013,10,17,13,38,15.20
2013,10,17,13,39,15.30
2013,10,17,13,40,15.30
2013,10,17,13,41,15.40
2013,10,17,13,42,15.40
2013,10,17,13,43,15.30
2013,10,17,13,44,15.30
2013,10,17,13,45,15.10
2013,10,17,13,46,15.10
2013,10,17,13,47,14.90
2013,10,17,13,48,14.70
2013,10,17,13,49,14.60
2013,10,17,13,50,14.40
2013,10,17,13,51,14.10
2013,10,17,13,52,13.90
2013,10,17,13,53,13.70
2013,10,17,13,54,13.40
2013,10,17,13,55,13.30
2013,10,17,13,56,13.10
2013,10,17,13,57,13.00
2013,10,17,13,58,12.80
2013,10,17,13,59,12.70
2013,10,17,14,00,12.60
2013,10,17,14,01,12.50
2013,10,17,14,02,12.40
2013,10,17,14,03,12.40
2013,10,17,14,04,12.40
2013,10,17,14,05,12.40
2013,10,17,14,06,12.40
2013,10,17,14,07,12.40
2013,10,17,14,08,12.30
2013,10,17,14,09,12.30
2013,10,17,14,10,12.30
2013,10,17,14,11,12.30
2013,10,17,14,12,12.30
2013,10,17,14,13,12.40
2013,10,17,14,14,12.50
2013,10,17,14,15,12.60
2013,10,17,14,16,12.60
2013,10,17,14,17,12.60
2013,10,17,14,18,12.60
2013,10,17,14,19,12.70
2013,10,17,14,20,12.80
2013,10,17,14,21,12.80
2013,10,17,14,22,12.80
2013,10,17,14,23,12.60
2013,10,17,14,24,12.40
2013,10,17,14,25,12.40
2013,10,17,14,26,12.40
2013,10,17,14,27,12.40
2013,10,17,14,28,12.30
2013,10,17,14,29,12.40
2013,10,17,14,30,12.30
2013,10,17,14,31,12.30
2013,10,17,14,32,12.30
2013,10,17,14,33,12.30
2013,10,17,14,34,12.30
2013,10,17,14,35,12.30
2013,10,17,14,36,12.20
2013,10,17,14,37,12.10
2013,10,17,14,38,12.10
2013,10,17,14,39,12.10
2013,10,17,14,40,12.00
2013,10,17,14,41,12.00
2013,10,17,14,42,12.00
2013,10,17,14,43,12.00
2013,10,17,14,44,12.10
2013,10,17,14,45,12.20
2013,10,17,14,46,12.30
2013,10,17,14,47,12.20
2013,10,17,14,48,12.20
2013,10,17,14,49,12.10
2013,10,17,14,50,12.00
2013,10,17,14,51,11.80
2013,10,17,14,52,11.80
2013,10,17,14,53,11.80
2013,10,17,14,54,11.80
2013,10,17,14,55,11.80
2013,10,17,14,56,11.80
2013,10,17,14,57,11.60
2013,10,17,14,58,11.60
2013,10,17,14,59,11.50
2013,10,17,15,00,11.40
2013,10,17,15,01,11.40
2013,10,17,15,02,11.40
2013,10,17,15,03,11.40
2013,10,17,15,04,11.40
2013,10,17,15,05,11.60
2013,10,17,15,06,11.70
2013,10,17,15,07,11.80
2013,10,17,15,08,11.80
2013,10,17,15,09,11.80
2013,10,17,15,10,11.70
2013,10,17,15,11,11.60
2013,10,17,15,12,11.60
2013,10,17,15,13,11.60
2013,10,17,15,14,11.50
2013,10,17,15,15,11.40
2013,10,17,15,16,11.40
2013,10,17,15,17,11.40
2013,10,17,15,18,11.40
2013,10,17,15,19,11.40
2013,10,17,15,20,11.50
2013,10,17,15,21,11.60
2013,10,17,15,22,11.60
2013,10,17,15,23,11.60
2013,10,17,15,24,11.60
2013,10,17,15,25,11.60
2013,10,17,15,26,11.50
2013,10,17,15,27,11.50
2013,10,17,15,28,11.60
2013,10,17,15,29,11.60
2013,10,17,15,30,11.60
2013,10,17,15,31,11.60
2013,10,17,15,32,11.60
2013,10,17,15,33,11.60
2013,10,17,15,34,11.50
2013,10,17,15,35,11.40
2013,10,17,15,36,11.50
2013,10,17,15,37,11.50
2013,10,17,15,38,11.40
2013,10,17,15,39,11.50
2013,10,17,15,40,11.60
2013,10,17,15,41,11.60
2013,10,17,15,42,11.60
2013,10,17,15,43,11.60
2013,10,17,15,44,11.60
2013,10,17,15,45,11.60
2013,10,17,15,46,11.60
2013,10,17,15,47,11.60
2013,10,17,15,48,11.50
2013,10,17,15,49,11.40
2013,10,17,15,50,11.40
2013,10,17,15,51,11.40
2013,10,17,15,52,11.40
2013,10,17,15,53,11.40
2013,10,17,15,54,11.40
2013,10,17,15,55,11.40
2013,10,17,15,56,11.40
2013,10,17,15,57,11.40
2013,10,17,15,58,11.40
2013,10,17,15,59,11.40
2013,10,17,16,00,11.40
2013,10,17,16,01,11.40
2013,10,17,16,02,11.40
2013,10,17,16,03,11.40
2013,10,17,16,04,11.40
2013,10,17,16,05,11.40
2013,10,17,16,06,11.40
2013,10,17,16,07,11.40
2013,10,17,16,08,11.40
2013,10,17,16,09,11.50
2013,10,17,16,10,11.60
2013,10,17,16,11,11.60
2013,10,17,16,12,11.60
2013,10,17,16,13,11.60
2013,10,17,16,14,11.60
2013,10,17,16,15,11.60
2013,10,17,16,16,11.70
2013,10,17,16,17,11.70
2013,10,17,16,18,11.70
2013,10,17,16,19,11.70
2013,10,17,16,20,11.70
2013,10,17,16,21,11.80
2013,10,17,16,22,11.80
2013,10,17,16,23,11.70
2013,10,17,16,24,11.70
2013,10,17,16,25,11.70
2013,10,17,16,26,11.70
2013,10,17,16,27,11.70
2013,10,17,16,28,11.70
2013,10,17,16,29,11.70
2013,10,17,16,30,11.70
2013,10,17,16,31,11.60
2013,10,17,16,32,11.60
2013,10,17,16,33,11.60
2013,10,17,16,34,11.60
2013,10,17,16,35,11.60
2013,10,17,16,36,11.60
2013,10,17,16,37,11.60
2013,10,17,16,38,11.60
2013,10,17,16,39,11.60
2013,10,17,16,40,11.60
2013,10,17,16,41,11.60
2013,10,17,16,42,11.60
2013,10,17,16,43,11.60
2013,10,17,16,44,11.60
2013,10,17,16,45,11.50
2013,10,17,16,46,11.40
2013,10,17,16,47,11.40
2013,10,17,16,48,11.40
2013,10,17,16,49,11.50
2013,10,17,16,50,11.60
2013,10,17,16,51,11.60
2013,10,17,16,52,11.60
2013,10,17,16,53,11.60
2013,10,17,16,54,11.60
2013,10,17,16,55,11.60
2013,10,17,16,56,11.60
2013,10,17,16,57,11.60
2013,10,17,16,58,11.60
2013,10,17,16,59,11.60
2013,10,17,17,00,11.60
2013,10,17,17,01,11.70
2013,10,17,17,02,11.70
2013,10,17,17,03,11.70
2013,10,17,17,04,11.70
2013,10,17,17,05,11.70
2013,10,17,17,06,11.80
2013,10,17,17,07,11.80
2013,10,17,17,08,11.80
2013,10,17,17,09,11.80
2013,10,17,17,10,11.80
2013,10,17,17,11,11.80
2013,10,17,17,12,11.80
2013,10,17,17,13,11.80
2013,10,17,17,14,11.80
2013,10,17,17,15,11.90
2013,10,17,17,16,11.90
2013,10,17,17,17,11.90
2013,10,17,17,18,12.00
2013,10,17,17,19,12.00
2013,10,17,17,20,12.00
2013,10,17,17,21,12.10
2013,10,17,17,22,12.10
2013,10,17,17,23,12.20
2013,10,17,17,24,12.20
2013,10,17,17,25,12.30
2013,10,17,17,26,12.30
2013,10,17,17,27,12.30
2013,10,17,17,28,12.30
2013,10,17,17,29,12.30
2013,10,17,17,30,12.30
2013,10,17,17,31,12.30
2013,10,17,17,32,12.30
2013,10,17,17,33,12.30
2013,10,17,17,34,12.30
2013,10,17,17,35,12.30
2013,10,17,17,36,12.30
2013,10,17,17,37,12.30
2013,10,17,17,38,12.30
2013,10,17,17,39,12.30
2013,10,17,17,40,12.30
2013,10,17,17,41,12.30
2013,10,17,17,42,12.30
2013,10,17,17,43,12.20
2013,10,17,17,44,12.20
2013,10,17,17,45,12.20
2013,10,17,17,46,12.20